N626PC RPVB-RPUB

Flight info

Callsign N626PC
Flight time 1h 57m
Altitude 8500
Route VFR
Aircraft AEST/L-SDF/S

Departure

Time 2026-05-05 22:16
Airport Bacolod-Silay International Airport (RPVB)

Arrival

Time 2026-05-06 00:14
Airport Loakan Airport (RPUB)
Time Latitude Longitude Altitude Speed Heading
2026-05-05 22:00 10.77275 123.01374 81 ft 0 kts 30°
2026-05-05 22:10 10.77280 123.01391 82 ft 1 kts 104°
2026-05-05 22:10 10.77280 123.01404 81 ft 2 kts 54°
2026-05-05 22:10 10.77284 123.01407 81 ft 0 kts 31°
2026-05-05 22:12 10.77297 123.01415 82 ft 6 kts 31°
2026-05-05 22:12 10.77313 123.01428 81 ft 3 kts 64°
2026-05-05 22:13 10.77325 123.01462 81 ft 9 kts 28°
2026-05-05 22:13 10.77367 123.01485 87 ft 4 kts 30°
2026-05-05 22:13 10.77365 123.01521 89 ft 9 kts 124°
2026-05-05 22:13 10.77322 123.01587 92 ft 12 kts 121°
2026-05-05 22:14 10.77265 123.01657 88 ft 12 kts 164°
2026-05-05 22:14 10.77184 123.01629 90 ft 15 kts 210°
2026-05-05 22:14 10.77084 123.01571 90 ft 19 kts 210°
2026-05-05 22:14 10.76972 123.01503 90 ft 12 kts 212°
2026-05-05 22:15 10.76925 123.01439 91 ft 9 kts 217°
2026-05-05 22:15 10.76902 123.01462 91 ft 7 kts 41°
2026-05-05 22:15 10.77025 123.01532 92 ft 49 kts 30°
2026-05-05 22:15 10.77495 123.01808 93 ft 98 kts 29°
2026-05-05 22:16 10.78129 123.02164 203 ft 110 kts 28°
2026-05-05 22:16 10.78877 123.02550 393 ft 131 kts 27°
2026-05-05 22:16 10.79739 123.02962 693 ft 141 kts 26°
2026-05-05 22:16 10.80694 123.03284 957 ft 151 kts
2026-05-05 22:17 10.81753 123.03091 1187 ft 160 kts 340°
2026-05-05 22:17 10.82745 123.02574 1500 ft 160 kts 334°
2026-05-05 22:17 10.83724 123.02023 1748 ft 163 kts 334°
2026-05-05 22:17 10.84713 123.01427 1962 ft 167 kts 330°
2026-05-05 22:18 10.85680 123.00745 2164 ft 172 kts 328°
2026-05-05 22:18 10.86650 123.00037 2422 ft 171 kts 327°
2026-05-05 22:18 10.87612 122.99327 2667 ft 171 kts 328°
2026-05-05 22:18 10.88598 122.98624 2866 ft 174 kts 328°
2026-05-05 22:19 10.89585 122.97899 3073 ft 175 kts 325°
2026-05-05 22:19 10.90534 122.97123 3279 ft 175 kts 324°
2026-05-05 22:19 10.91487 122.96348 3479 ft 175 kts 325°
2026-05-05 22:19 10.92446 122.95583 3673 ft 175 kts 325°
2026-05-05 22:20 10.93411 122.94817 3865 ft 176 kts 325°
2026-05-05 22:20 10.94375 122.94055 4055 ft 176 kts 324°
2026-05-05 22:20 10.95341 122.93283 4243 ft 177 kts 324°
2026-05-05 22:20 10.96298 122.92517 4426 ft 177 kts 325°
2026-05-05 22:21 10.97266 122.91749 4605 ft 176 kts 324°
2026-05-05 22:21 10.98235 122.90975 4773 ft 178 kts 324°
2026-05-05 22:21 10.99209 122.90197 4946 ft 178 kts 325°
2026-05-05 22:21 11.00191 122.89416 5121 ft 180 kts 325°
2026-05-05 22:22 11.01180 122.88627 5306 ft 180 kts 325°
2026-05-05 22:22 11.02166 122.87846 5489 ft 179 kts 325°
2026-05-05 22:22 11.03148 122.87065 5675 ft 179 kts 325°
2026-05-05 22:22 11.04172 122.86359 5859 ft 177 kts 328°
2026-05-05 22:23 11.05189 122.85649 6031 ft 177 kts 328°
2026-05-05 22:23 11.06207 122.84947 6194 ft 177 kts 328°
2026-05-05 22:23 11.07221 122.84248 6352 ft 176 kts 328°
2026-05-05 22:23 11.08232 122.83551 6506 ft 176 kts 329°
2026-05-05 22:24 11.09247 122.82854 6655 ft 176 kts 329°
2026-05-05 22:24 11.10265 122.82156 6802 ft 176 kts 328°
2026-05-05 22:24 11.11278 122.81460 6953 ft 176 kts 328°
2026-05-05 22:24 11.12289 122.80763 7100 ft 175 kts 328°
2026-05-05 22:25 11.13298 122.80067 7240 ft 175 kts 328°
2026-05-05 22:25 11.14302 122.79377 7371 ft 174 kts 328°
2026-05-05 22:25 11.15306 122.78686 7502 ft 174 kts 328°
2026-05-05 22:25 11.16294 122.78006 7637 ft 173 kts 328°
2026-05-05 22:26 11.17287 122.77323 7768 ft 172 kts 328°
2026-05-05 22:26 11.18278 122.76640 7896 ft 171 kts 328°
2026-05-05 22:26 11.19266 122.75959 8019 ft 171 kts 328°
2026-05-05 22:26 11.20256 122.75277 8150 ft 172 kts 328°
2026-05-05 22:27 11.21249 122.74594 8280 ft 173 kts 328°
2026-05-05 22:27 11.22244 122.73909 8395 ft 173 kts 328°
2026-05-05 22:27 11.23245 122.73220 8497 ft 174 kts 328°
2026-05-05 22:27 11.24256 122.72525 8560 ft 178 kts 328°
2026-05-05 22:28 11.25304 122.71805 8546 ft 186 kts 328°
2026-05-05 22:28 11.26392 122.71057 8527 ft 191 kts 328°
2026-05-05 22:28 11.27507 122.70289 8500 ft 196 kts 328°
2026-05-05 22:28 11.28648 122.69503 8493 ft 199 kts 328°
2026-05-05 22:29 11.29795 122.68712 8504 ft 200 kts 328°
2026-05-05 22:29 11.30954 122.67913 8508 ft 204 kts 328°
2026-05-05 22:29 11.32140 122.67095 8506 ft 207 kts 328°
2026-05-05 22:29 11.33345 122.66266 8507 ft 210 kts 328°
2026-05-05 22:30 11.34564 122.65425 8500 ft 213 kts 328°
2026-05-05 22:30 11.35796 122.64576 8499 ft 215 kts 328°
2026-05-05 22:30 11.37035 122.63722 8504 ft 215 kts 328°
2026-05-05 22:30 11.38274 122.62868 8506 ft 215 kts 328°
2026-05-05 22:31 11.39496 122.62026 8503 ft 215 kts 328°
2026-05-05 22:31 11.40750 122.61162 8507 ft 215 kts 328°
2026-05-05 22:31 11.41990 122.60306 8509 ft 216 kts 327°
2026-05-05 22:31 11.43236 122.59445 8504 ft 217 kts 328°
2026-05-05 22:32 11.44472 122.58591 8506 ft 218 kts 328°
2026-05-05 22:32 11.45731 122.57723 8498 ft 219 kts 328°
2026-05-05 22:32 11.46999 122.56849 8485 ft 220 kts 328°
2026-05-05 22:32 11.48265 122.55975 8505 ft 219 kts 328°
2026-05-05 22:33 11.49532 122.55101 8504 ft 220 kts 328°
2026-05-05 22:33 11.50799 122.54225 8505 ft 220 kts 328°
2026-05-05 22:33 11.52067 122.53349 8495 ft 220 kts 328°
2026-05-05 22:33 11.53336 122.52474 8502 ft 220 kts 328°
2026-05-05 22:34 11.54604 122.51599 8499 ft 220 kts 328°
2026-05-05 22:34 11.55876 122.50721 8502 ft 221 kts 328°
2026-05-05 22:34 11.56717 122.50139 8500 ft 220 kts 328°
2026-05-05 22:34 11.57986 122.49263 8495 ft 220 kts 328°
2026-05-05 22:35 11.59256 122.48386 8499 ft 220 kts 328°
2026-05-05 22:35 11.60581 122.47601 8498 ft 220 kts 333°
2026-05-05 22:35 11.61916 122.46841 8508 ft 220 kts 333°
2026-05-05 22:35 11.63255 122.46079 8503 ft 220 kts 333°
2026-05-05 22:36 11.64596 122.45320 8502 ft 220 kts 333°
2026-05-05 22:36 11.65934 122.44563 8502 ft 220 kts 333°
2026-05-05 22:36 11.67267 122.43807 8501 ft 220 kts 333°
2026-05-05 22:36 11.68605 122.43049 8503 ft 220 kts 333°
2026-05-05 22:37 11.69940 122.42292 8503 ft 220 kts 333°
2026-05-05 22:37 11.71277 122.41533 8498 ft 220 kts 333°
2026-05-05 22:37 11.72610 122.40778 8497 ft 220 kts 333°
2026-05-05 22:37 11.73945 122.40020 8496 ft 220 kts 333°
2026-05-05 22:38 11.75281 122.39262 8498 ft 220 kts 333°
2026-05-05 22:38 11.76619 122.38503 8498 ft 220 kts 333°
2026-05-05 22:38 11.77958 122.37735 8499 ft 222 kts 333°
2026-05-05 22:38 11.79308 122.36971 8493 ft 222 kts 334°
2026-05-05 22:39 11.80654 122.36214 8502 ft 220 kts 334°
2026-05-05 22:39 11.81992 122.35457 8503 ft 220 kts 333°
2026-05-05 22:39 11.83330 122.34691 8498 ft 221 kts 333°
2026-05-05 22:39 11.84671 122.33937 8499 ft 220 kts 333°
2026-05-05 22:40 11.85988 122.33189 8497 ft 220 kts 333°
2026-05-05 22:40 11.87324 122.32427 8500 ft 220 kts 333°
2026-05-05 22:40 11.88661 122.31666 8499 ft 220 kts 333°
2026-05-05 22:40 11.89999 122.30906 8491 ft 220 kts 333°
2026-05-05 22:41 11.91338 122.30147 8496 ft 220 kts 333°
2026-05-05 22:41 11.92677 122.29384 8496 ft 220 kts 333°
2026-05-05 22:41 11.94015 122.28623 8493 ft 220 kts 333°
2026-05-05 22:41 11.95357 122.27861 8494 ft 220 kts 333°
2026-05-05 22:42 11.96691 122.27106 8498 ft 220 kts 333°
2026-05-05 22:42 11.98026 122.26347 8495 ft 220 kts 333°
2026-05-05 22:42 11.99365 122.25583 8492 ft 220 kts 333°
2026-05-05 22:42 12.00702 122.24824 8497 ft 220 kts 333°
2026-05-05 22:43 12.02036 122.24066 8493 ft 220 kts 333°
2026-05-05 22:43 12.03375 122.23303 8495 ft 220 kts 333°
2026-05-05 22:43 12.04716 122.22541 8496 ft 221 kts 333°
2026-05-05 22:43 12.06054 122.21779 8497 ft 221 kts 333°
2026-05-05 22:44 12.07396 122.21018 8490 ft 220 kts 333°
2026-05-05 22:44 12.08738 122.20252 8496 ft 221 kts 333°
2026-05-05 22:44 12.10075 122.19493 8487 ft 220 kts 333°
2026-05-05 22:44 12.11412 122.18733 8496 ft 220 kts 333°
2026-05-05 22:45 12.12749 122.17971 8491 ft 220 kts 333°
2026-05-05 22:45 12.14084 122.17211 8494 ft 220 kts 333°
2026-05-05 22:45 12.15418 122.16451 8493 ft 220 kts 333°
2026-05-05 22:45 12.16755 122.15691 8488 ft 220 kts 333°
2026-05-05 22:46 12.18094 122.14928 8493 ft 220 kts 333°
2026-05-05 22:46 12.19431 122.14167 8485 ft 220 kts 333°
2026-05-05 22:46 12.20767 122.13406 8494 ft 220 kts 333°
2026-05-05 22:46 12.22089 122.12653 8496 ft 220 kts 333°
2026-05-05 22:47 12.23424 122.11893 8498 ft 220 kts 333°
2026-05-05 22:47 12.24761 122.11131 8499 ft 220 kts 333°
2026-05-05 22:47 12.26097 122.10370 8498 ft 220 kts 333°
2026-05-05 22:47 12.27433 122.09608 8498 ft 220 kts 333°
2026-05-05 22:48 12.28772 122.08845 8494 ft 220 kts 333°
2026-05-05 22:48 12.30109 122.08082 8498 ft 220 kts 333°
2026-05-05 22:48 12.31391 122.07230 8491 ft 220 kts 323°
2026-05-05 22:48 12.32580 122.06233 8494 ft 222 kts 322°
2026-05-05 22:49 12.33772 122.05230 8498 ft 221 kts 322°
2026-05-05 22:49 12.34963 122.04229 8490 ft 222 kts 322°
2026-05-05 22:49 12.36157 122.03228 8500 ft 222 kts 322°
2026-05-05 22:49 12.37354 122.02221 8495 ft 223 kts 322°
2026-05-05 22:50 12.38552 122.01215 8488 ft 223 kts 322°
2026-05-05 22:50 12.39749 122.00212 8499 ft 222 kts 322°
2026-05-05 22:50 12.40944 121.99209 8500 ft 222 kts 322°
2026-05-05 22:50 12.42139 121.98204 8501 ft 222 kts 322°
2026-05-05 22:51 12.43337 121.97199 8501 ft 222 kts 322°
2026-05-05 22:51 12.44533 121.96196 8501 ft 222 kts 322°
2026-05-05 22:51 12.45724 121.95197 8501 ft 221 kts 322°
2026-05-05 22:51 12.46914 121.94196 8502 ft 222 kts 322°
2026-05-05 22:52 12.48108 121.93191 8500 ft 222 kts 322°
2026-05-05 22:52 12.49301 121.92189 8496 ft 222 kts 322°
2026-05-05 22:52 12.50495 121.91187 8500 ft 222 kts 322°
2026-05-05 22:52 12.51675 121.90196 8500 ft 222 kts 322°
2026-05-05 22:53 12.52868 121.89192 8499 ft 222 kts 322°
2026-05-05 22:53 12.54061 121.88189 8500 ft 222 kts 322°
2026-05-05 22:53 12.55252 121.87189 8503 ft 222 kts 322°
2026-05-05 22:53 12.56447 121.86184 8505 ft 222 kts 322°
2026-05-05 22:54 12.57639 121.85180 8507 ft 222 kts 322°
2026-05-05 22:54 12.58831 121.84178 8507 ft 222 kts 322°
2026-05-05 22:54 12.60024 121.83175 8503 ft 222 kts 322°
2026-05-05 22:54 12.61218 121.82170 8500 ft 223 kts 322°
2026-05-05 22:55 12.62415 121.81163 8498 ft 223 kts 322°
2026-05-05 22:55 12.63611 121.80157 8504 ft 222 kts 322°
2026-05-05 22:55 12.64805 121.79151 8506 ft 222 kts 322°
2026-05-05 22:55 12.66001 121.78146 8503 ft 222 kts 322°
2026-05-05 22:56 12.67198 121.77138 8504 ft 222 kts 322°
2026-05-05 22:56 12.68394 121.76131 8493 ft 222 kts 322°
2026-05-05 22:56 12.69589 121.75125 8505 ft 222 kts 322°
2026-05-05 22:56 12.70784 121.74118 8509 ft 223 kts 322°
2026-05-05 22:57 12.71980 121.73111 8507 ft 223 kts 322°
2026-05-05 22:57 12.73178 121.72103 8509 ft 222 kts 322°
2026-05-05 22:57 12.74371 121.71098 8506 ft 222 kts 322°
2026-05-05 22:57 12.75566 121.70090 8501 ft 222 kts 322°
2026-05-05 22:58 12.76761 121.69084 8509 ft 222 kts 322°
2026-05-05 22:58 12.77956 121.68076 8506 ft 223 kts 322°
2026-05-05 22:58 12.79139 121.67080 8509 ft 223 kts 322°
2026-05-05 22:58 12.80334 121.66073 8504 ft 223 kts 322°
2026-05-05 22:59 12.81529 121.65065 8508 ft 222 kts 322°
2026-05-05 22:59 12.82725 121.64056 8508 ft 222 kts 322°
2026-05-05 22:59 12.83914 121.63055 8516 ft 222 kts 322°
2026-05-05 22:59 12.85112 121.62044 8514 ft 222 kts 322°
2026-05-05 23:00 12.87501 121.60028 8515 ft 223 kts 322°
2026-05-05 23:00 12.88697 121.59020 8513 ft 223 kts 322°
2026-05-05 23:00 12.89893 121.58011 8516 ft 223 kts 322°
2026-05-05 23:01 12.91090 121.57000 8515 ft 223 kts 322°
2026-05-05 23:01 12.92284 121.55992 8517 ft 222 kts 322°
2026-05-05 23:01 12.93478 121.54984 8517 ft 222 kts 322°
2026-05-05 23:01 12.94675 121.53974 8516 ft 222 kts 322°
2026-05-05 23:02 12.95870 121.52966 8516 ft 222 kts 322°
2026-05-05 23:02 12.97063 121.51958 8527 ft 222 kts 322°
2026-05-05 23:02 12.98259 121.50948 8525 ft 223 kts 322°
2026-05-05 23:02 12.99458 121.49936 8522 ft 223 kts 322°
2026-05-05 23:03 13.00655 121.48925 8524 ft 223 kts 322°
2026-05-05 23:03 13.01852 121.47912 8527 ft 223 kts 322°
2026-05-05 23:03 13.03052 121.46899 8527 ft 223 kts 322°
2026-05-05 23:03 13.04249 121.45887 8528 ft 223 kts 322°
2026-05-05 23:04 13.05446 121.44875 8528 ft 223 kts 322°
2026-05-05 23:04 13.06627 121.43877 8525 ft 223 kts 322°
2026-05-05 23:04 13.07825 121.42864 8525 ft 223 kts 322°
2026-05-05 23:04 13.09025 121.41850 8525 ft 223 kts 322°
2026-05-05 23:05 13.10223 121.40838 8533 ft 223 kts 322°
2026-05-05 23:05 13.11420 121.39825 8533 ft 223 kts 322°
2026-05-05 23:05 13.12617 121.38812 8533 ft 223 kts 322°
2026-05-05 23:05 13.13818 121.37796 8533 ft 223 kts 322°
2026-05-05 23:06 13.15016 121.36783 8532 ft 223 kts 322°
2026-05-05 23:06 13.16214 121.35769 8535 ft 223 kts 322°
2026-05-05 23:06 13.17411 121.34755 8536 ft 223 kts 322°
2026-05-05 23:06 13.18612 121.33739 8535 ft 223 kts 322°
2026-05-05 23:07 13.19810 121.32725 8535 ft 223 kts 322°
2026-05-05 23:07 13.21009 121.31711 8525 ft 223 kts 322°
2026-05-05 23:07 13.22207 121.30696 8526 ft 223 kts 322°
2026-05-05 23:07 13.23405 121.29681 8530 ft 223 kts 322°
2026-05-05 23:08 13.24589 121.28679 8532 ft 223 kts 322°
2026-05-05 23:08 13.25805 121.27649 8534 ft 224 kts 322°
2026-05-05 23:08 13.26993 121.26641 8532 ft 224 kts 322°
2026-05-05 23:08 13.28196 121.25622 8531 ft 224 kts 322°
2026-05-05 23:09 13.29398 121.24605 8532 ft 224 kts 322°
2026-05-05 23:09 13.30598 121.23582 8530 ft 226 kts 322°
2026-05-05 23:09 13.31809 121.22556 8530 ft 225 kts 323°
2026-05-05 23:09 13.33019 121.21534 8531 ft 224 kts 323°
2026-05-05 23:10 13.34221 121.20521 8532 ft 223 kts 322°
2026-05-05 23:10 13.35418 121.19506 8526 ft 223 kts 322°
2026-05-05 23:10 13.36614 121.18488 8528 ft 223 kts 322°
2026-05-05 23:10 13.37815 121.17466 8526 ft 225 kts 322°
2026-05-05 23:11 13.39022 121.16440 8526 ft 225 kts 322°
2026-05-05 23:11 13.40224 121.15424 8527 ft 223 kts 322°
2026-05-05 23:11 13.41427 121.14401 8526 ft 225 kts 322°
2026-05-05 23:11 13.42636 121.13376 8526 ft 226 kts 323°
2026-05-05 23:12 13.43845 121.12355 8526 ft 224 kts 322°
2026-05-05 23:12 13.45043 121.11338 8525 ft 223 kts 322°
2026-05-05 23:12 13.46240 121.10317 8526 ft 225 kts 322°
2026-05-05 23:12 13.47445 121.09290 8528 ft 225 kts 322°
2026-05-05 23:13 13.48653 121.08269 8519 ft 225 kts 322°
2026-05-05 23:13 13.49859 121.07248 8523 ft 224 kts 322°
2026-05-05 23:13 13.51062 121.06226 8514 ft 225 kts 322°
2026-05-05 23:13 13.52248 121.05216 8521 ft 224 kts 322°
2026-05-05 23:14 13.53451 121.04193 8523 ft 224 kts 322°
2026-05-05 23:14 13.54656 121.03169 8512 ft 225 kts 322°
2026-05-05 23:14 13.55861 121.02145 8516 ft 225 kts 322°
2026-05-05 23:14 13.57065 121.01121 8517 ft 225 kts 322°
2026-05-05 23:15 13.58268 121.00098 8519 ft 224 kts 322°
2026-05-05 23:15 13.59470 120.99076 8520 ft 224 kts 322°
2026-05-05 23:15 13.60674 120.98051 8521 ft 225 kts 322°
2026-05-05 23:15 13.61878 120.97028 8522 ft 224 kts 322°
2026-05-05 23:16 13.63084 120.96005 8515 ft 224 kts 322°
2026-05-05 23:16 13.64286 120.94980 8506 ft 225 kts 322°
2026-05-05 23:16 13.65490 120.93954 8508 ft 225 kts 322°
2026-05-05 23:16 13.66695 120.92928 8510 ft 225 kts 322°
2026-05-05 23:17 13.67904 120.91899 8511 ft 226 kts 322°
2026-05-05 23:17 13.69118 120.90867 8512 ft 226 kts 322°
2026-05-05 23:17 13.70331 120.89837 8513 ft 226 kts 322°
2026-05-05 23:17 13.71548 120.88805 8508 ft 226 kts 322°
2026-05-05 23:18 13.72766 120.87788 8508 ft 226 kts 322°
2026-05-05 23:18 13.73985 120.86765 8507 ft 226 kts 323°
2026-05-05 23:18 13.75204 120.85734 8507 ft 227 kts 323°
2026-05-05 23:18 13.76422 120.84702 8511 ft 227 kts 323°
2026-05-05 23:19 13.77639 120.83668 8510 ft 227 kts 323°
2026-05-05 23:19 13.78858 120.82637 8512 ft 226 kts 323°
2026-05-05 23:19 13.80074 120.81614 8511 ft 226 kts 322°
2026-05-05 23:19 13.81289 120.80594 8484 ft 225 kts 323°
2026-05-05 23:20 13.82498 120.79580 8390 ft 224 kts 323°
2026-05-05 23:20 13.83707 120.78566 8286 ft 223 kts 323°
2026-05-05 23:20 13.84892 120.77572 8178 ft 222 kts 323°
2026-05-05 23:20 13.86105 120.76557 8069 ft 222 kts 323°
2026-05-05 23:21 13.87301 120.75557 7962 ft 221 kts 322°
2026-05-05 23:21 13.88480 120.74569 7856 ft 221 kts 323°
2026-05-05 23:21 13.89284 120.73897 7783 ft 220 kts 323°
2026-05-05 23:21 13.90859 120.72580 7644 ft 220 kts 323°
2026-05-05 23:22 13.92045 120.71586 7539 ft 220 kts 323°
2026-05-05 23:22 13.92844 120.70916 7466 ft 220 kts 323°
2026-05-05 23:22 13.94031 120.69921 7368 ft 219 kts 322°
2026-05-05 23:22 13.95601 120.68607 7239 ft 219 kts 323°
2026-05-05 23:23 13.96782 120.67623 7151 ft 219 kts 323°
2026-05-05 23:23 13.97606 120.67020 7094 ft 218 kts 328°
2026-05-05 23:23 13.99312 120.65895 6947 ft 218 kts 329°
2026-05-05 23:23 14.00172 120.65368 6878 ft 217 kts 334°
2026-05-05 23:24 14.01530 120.64695 6777 ft 216 kts 337°
2026-05-05 23:24 14.02910 120.64083 6682 ft 216 kts 340°
2026-05-05 23:24 14.04315 120.63539 6585 ft 215 kts 342°
2026-05-05 23:24 14.05725 120.63031 6493 ft 214 kts 344°
2026-05-05 23:25 14.07620 120.62402 6362 ft 214 kts 345°
2026-05-05 23:25 14.08565 120.62108 6300 ft 214 kts 346°
2026-05-05 23:25 14.09994 120.61689 6201 ft 213 kts 347°
2026-05-05 23:25 14.11420 120.61274 6100 ft 213 kts 347°
2026-05-05 23:26 14.12842 120.60857 6003 ft 212 kts 347°
2026-05-05 23:26 14.14278 120.60503 5910 ft 212 kts 350°
2026-05-05 23:26 14.15722 120.60197 5825 ft 212 kts 353°
2026-05-05 23:26 14.17173 120.59948 5738 ft 212 kts 353°
2026-05-05 23:27 14.18636 120.59810 5663 ft 211 kts
2026-05-05 23:27 14.20105 120.59818 5590 ft 210 kts
2026-05-05 23:27 14.21571 120.59838 5517 ft 211 kts
2026-05-05 23:27 14.23034 120.59853 5489 ft 210 kts
2026-05-05 23:28 14.24483 120.59873 5509 ft 207 kts
2026-05-05 23:28 14.25921 120.59893 5514 ft 206 kts
2026-05-05 23:28 14.27356 120.59913 5514 ft 206 kts
2026-05-05 23:28 14.28770 120.59927 5517 ft 206 kts
2026-05-05 23:29 14.30201 120.59944 5513 ft 206 kts
2026-05-05 23:29 14.31630 120.59974 5514 ft 205 kts
2026-05-05 23:29 14.33049 120.60136 5511 ft 204 kts 10°
2026-05-05 23:29 14.34459 120.60325 5515 ft 204 kts
2026-05-05 23:30 14.35861 120.60203 5517 ft 204 kts 347°
2026-05-05 23:30 14.37229 120.59779 5524 ft 206 kts 345°
2026-05-05 23:30 14.38594 120.59330 5522 ft 206 kts 345°
2026-05-05 23:30 14.39966 120.58878 5519 ft 207 kts 345°
2026-05-05 23:31 14.41338 120.58423 5518 ft 207 kts 345°
2026-05-05 23:31 14.42707 120.57955 5517 ft 208 kts 343°
2026-05-05 23:31 14.44071 120.57452 5507 ft 208 kts 342°
2026-05-05 23:31 14.45430 120.56947 5513 ft 208 kts 342°
2026-05-05 23:32 14.46791 120.56440 5520 ft 208 kts 342°
2026-05-05 23:32 14.48153 120.55931 5514 ft 208 kts 342°
2026-05-05 23:32 14.49500 120.55429 5521 ft 209 kts 342°
2026-05-05 23:32 14.50881 120.54956 5524 ft 210 kts 350°
2026-05-05 23:33 14.52317 120.54712 5519 ft 209 kts 355°
2026-05-05 23:33 14.53756 120.54514 5524 ft 209 kts 355°
2026-05-05 23:33 14.55197 120.54322 5517 ft 209 kts 355°
2026-05-05 23:33 14.56639 120.54130 5519 ft 209 kts 355°
2026-05-05 23:34 14.58086 120.53991 5518 ft 208 kts
2026-05-05 23:34 14.59527 120.54016 5514 ft 207 kts
2026-05-05 23:34 14.60964 120.54089 5512 ft 206 kts
2026-05-05 23:34 14.62391 120.54171 5514 ft 205 kts
2026-05-05 23:35 14.63813 120.54271 5516 ft 205 kts
2026-05-05 23:35 14.65234 120.54381 5520 ft 205 kts
2026-05-05 23:35 14.66650 120.54539 5518 ft 204 kts 10°
2026-05-05 23:35 14.68065 120.54721 5469 ft 206 kts 11°
2026-05-05 23:36 14.69480 120.54951 5470 ft 205 kts 13°
2026-05-05 23:36 14.70883 120.55207 5481 ft 204 kts 13°
2026-05-05 23:36 14.72279 120.55463 5478 ft 203 kts 13°
2026-05-05 23:36 14.73654 120.55716 5476 ft 203 kts 13°
2026-05-05 23:37 14.75044 120.55971 5486 ft 203 kts 13°
2026-05-05 23:37 14.76435 120.56227 5481 ft 203 kts 13°
2026-05-05 23:37 14.77827 120.56483 5497 ft 203 kts 13°
2026-05-05 23:37 14.79216 120.56739 5493 ft 203 kts 13°
2026-05-05 23:38 14.80605 120.56994 5499 ft 203 kts 13°
2026-05-05 23:38 14.81994 120.57250 5498 ft 203 kts 13°
2026-05-05 23:38 14.83384 120.57506 5499 ft 203 kts 13°
2026-05-05 23:38 14.84760 120.57819 5503 ft 203 kts 21°
2026-05-05 23:39 14.86077 120.58329 5495 ft 202 kts 25°
2026-05-05 23:39 14.87375 120.58869 5494 ft 201 kts 25°
2026-05-05 23:39 14.88672 120.59410 5501 ft 201 kts 25°
2026-05-05 23:39 14.89971 120.59955 5495 ft 202 kts 25°
2026-05-05 23:40 14.91270 120.60499 5505 ft 201 kts 25°
2026-05-05 23:40 14.92567 120.61044 5504 ft 201 kts 25°
2026-05-05 23:40 14.93868 120.61590 5498 ft 202 kts 25°
2026-05-05 23:40 14.95170 120.62134 5505 ft 201 kts 25°
2026-05-05 23:41 14.96435 120.62748 5507 ft 200 kts 33°
2026-05-05 23:41 14.97618 120.63502 5500 ft 200 kts 37°
2026-05-05 23:41 14.98772 120.64308 5502 ft 200 kts 37°
2026-05-05 23:41 14.99920 120.65113 5503 ft 199 kts 37°
2026-05-05 23:42 15.01041 120.65954 5505 ft 199 kts 40°
2026-05-05 23:42 15.02141 120.66819 5505 ft 199 kts 40°
2026-05-05 23:42 15.03242 120.67686 5509 ft 198 kts 40°
2026-05-05 23:42 15.04316 120.68552 5512 ft 198 kts 43°
2026-05-05 23:43 15.05361 120.69514 5506 ft 198 kts 45°
2026-05-05 23:43 15.06183 120.70613 5524 ft 196 kts 66°
2026-05-05 23:43 15.06727 120.71922 5497 ft 195 kts 70°
2026-05-05 23:43 15.07218 120.73200 5511 ft 193 kts 71°
2026-05-05 23:44 15.07698 120.74503 5506 ft 195 kts 71°
2026-05-05 23:44 15.08186 120.75829 5508 ft 195 kts 71°
2026-05-05 23:44 15.08661 120.77123 5510 ft 195 kts 71°
2026-05-05 23:44 15.09142 120.78435 5509 ft 195 kts 71°
2026-05-05 23:45 15.09623 120.79748 5509 ft 195 kts 71°
2026-05-05 23:45 15.10105 120.81067 5505 ft 196 kts 71°
2026-05-05 23:45 15.10693 120.82326 5501 ft 195 kts 53°
2026-05-05 23:45 15.11776 120.83156 5505 ft 198 kts 24°
2026-05-05 23:46 15.13141 120.83314 5504 ft 201 kts 354°
2026-05-05 23:46 15.14458 120.82817 5529 ft 204 kts 336°
2026-05-05 23:46 15.15747 120.82175 5517 ft 207 kts 336°
2026-05-05 23:46 15.17075 120.81587 5503 ft 208 kts 342°
2026-05-05 23:47 15.18448 120.81112 5510 ft 208 kts 346°
2026-05-05 23:47 15.19864 120.80818 5515 ft 208 kts 354°
2026-05-05 23:47 15.21302 120.80619 5500 ft 208 kts 355°
2026-05-05 23:47 15.22738 120.80426 5514 ft 208 kts 355°
2026-05-05 23:48 15.24175 120.80235 5510 ft 208 kts 355°
2026-05-05 23:48 15.25614 120.80043 5510 ft 208 kts 355°
2026-05-05 23:48 15.27048 120.79865 5511 ft 208 kts 357°
2026-05-05 23:48 15.28491 120.79741 5509 ft 208 kts 358°
2026-05-05 23:49 15.29929 120.79635 5511 ft 207 kts 360°
2026-05-05 23:49 15.31370 120.79565 5512 ft 207 kts
2026-05-05 23:49 15.32814 120.79500 5508 ft 207 kts
2026-05-05 23:49 15.34253 120.79436 5513 ft 207 kts
2026-05-05 23:50 15.35692 120.79372 5513 ft 207 kts
2026-05-05 23:50 15.37134 120.79309 5509 ft 207 kts
2026-05-05 23:50 15.38575 120.79250 5513 ft 207 kts
2026-05-05 23:50 15.40002 120.79194 5518 ft 208 kts
2026-05-05 23:51 15.41446 120.79137 5513 ft 208 kts
2026-05-05 23:51 15.42887 120.79078 5517 ft 207 kts
2026-05-05 23:51 15.44319 120.78946 5500 ft 207 kts 346°
2026-05-05 23:51 15.45559 120.78206 5510 ft 208 kts 316°
2026-05-05 23:52 15.46463 120.77034 5517 ft 209 kts 308°
2026-05-05 23:52 15.47465 120.75937 5513 ft 210 kts 320°
2026-05-05 23:52 15.48610 120.74998 5510 ft 210 kts 324°
2026-05-05 23:52 15.49786 120.74093 5507 ft 211 kts 324°
2026-05-05 23:53 15.50954 120.73175 5511 ft 211 kts 324°
2026-05-05 23:53 15.52118 120.72247 5510 ft 211 kts 323°
2026-05-05 23:53 15.53278 120.71318 5510 ft 211 kts 323°
2026-05-05 23:53 15.54440 120.70390 5511 ft 211 kts 324°
2026-05-05 23:54 15.55606 120.69462 5512 ft 212 kts 324°
2026-05-05 23:54 15.56775 120.68531 5507 ft 212 kts 323°
2026-05-05 23:54 15.57944 120.67597 5506 ft 213 kts 323°
2026-05-05 23:54 15.59117 120.66660 5505 ft 213 kts 323°
2026-05-05 23:55 15.60288 120.65725 5515 ft 212 kts 324°
2026-05-05 23:55 15.61458 120.64792 5512 ft 212 kts 323°
2026-05-05 23:55 15.62630 120.63856 5508 ft 213 kts 323°
2026-05-05 23:55 15.63803 120.62920 5512 ft 213 kts 323°
2026-05-05 23:56 15.64975 120.61984 5515 ft 213 kts 323°
2026-05-05 23:56 15.66151 120.61051 5514 ft 213 kts 326°
2026-05-05 23:56 15.67488 120.60415 5528 ft 211 kts 348°
2026-05-05 23:56 15.68942 120.60304 5519 ft 209 kts
2026-05-05 23:57 15.70379 120.60528 5484 ft 209 kts 12°
2026-05-05 23:57 15.71805 120.60772 5511 ft 207 kts 12°
2026-05-05 23:57 15.73222 120.61016 5512 ft 206 kts 11°
2026-05-05 23:57 15.74638 120.61254 5512 ft 206 kts 11°
2026-05-05 23:58 15.76054 120.61495 5511 ft 206 kts 11°
2026-05-05 23:58 15.77466 120.61734 5513 ft 205 kts 11°
2026-05-05 23:58 15.78875 120.61973 5514 ft 205 kts 11°
2026-05-05 23:58 15.80284 120.62212 5514 ft 205 kts 11°
2026-05-05 23:59 15.81694 120.62451 5512 ft 205 kts 11°
2026-05-05 23:59 15.83105 120.62689 5521 ft 206 kts 11°
2026-05-05 23:59 15.84500 120.62925 5522 ft 206 kts 11°
2026-05-05 23:59 15.85911 120.63165 5522 ft 206 kts 11°
2026-05-06 00:00 15.87324 120.63404 5521 ft 206 kts 11°
2026-05-06 00:00 15.88738 120.63644 5527 ft 206 kts 11°
2026-05-06 00:00 15.90166 120.63885 5529 ft 205 kts 11°
2026-05-06 00:00 15.91562 120.64122 5529 ft 206 kts 11°
2026-05-06 00:01 15.92974 120.64362 5529 ft 206 kts 11°
2026-05-06 00:01 15.94388 120.64601 5530 ft 206 kts 11°
2026-05-06 00:01 15.95803 120.64841 5527 ft 206 kts 11°
2026-05-06 00:01 15.97217 120.65081 5527 ft 206 kts 11°
2026-05-06 00:02 15.98632 120.65321 5524 ft 206 kts 11°
2026-05-06 00:02 16.00049 120.65561 5531 ft 206 kts 11°
2026-05-06 00:02 16.01464 120.65801 5545 ft 205 kts 11°
2026-05-06 00:02 16.02866 120.66022 5551 ft 204 kts 10°
2026-05-06 00:03 16.04273 120.66232 5565 ft 203 kts 11°
2026-05-06 00:03 16.05655 120.66481 5594 ft 201 kts 12°
2026-05-06 00:03 16.07042 120.66736 5587 ft 203 kts 13°
2026-05-06 00:03 16.08426 120.67023 5595 ft 203 kts 13°
2026-05-06 00:04 16.09793 120.67295 5611 ft 203 kts 13°
2026-05-06 00:04 16.11179 120.67571 5620 ft 204 kts 13°
2026-05-06 00:04 16.12575 120.67841 5622 ft 204 kts 11°
2026-05-06 00:04 16.13981 120.68059 5642 ft 204 kts 10°
2026-05-06 00:05 16.16809 120.68540 5606 ft 206 kts 12°
2026-05-06 00:05 16.18228 120.68751 5607 ft 206 kts
2026-05-06 00:05 16.19652 120.68888 5607 ft 206 kts
2026-05-06 00:06 16.21071 120.69045 5650 ft 205 kts 10°
2026-05-06 00:06 16.22471 120.69317 5660 ft 205 kts 16°
2026-05-06 00:06 16.23828 120.69770 5671 ft 205 kts 22°
2026-05-06 00:06 16.25160 120.70300 5689 ft 205 kts 23°
2026-05-06 00:07 16.26502 120.70871 5586 ft 212 kts 26°
2026-05-06 00:07 16.27845 120.71524 5476 ft 212 kts 26°
2026-05-06 00:07 16.29216 120.72055 5473 ft 209 kts 18°
2026-05-06 00:07 16.30641 120.72366 5458 ft 210 kts 10°
2026-05-06 00:08 16.32103 120.72518 5419 ft 211 kts
2026-05-06 00:08 16.33567 120.72596 5425 ft 210 kts
2026-05-06 00:08 16.35024 120.72603 5449 ft 208 kts
2026-05-06 00:08 16.36465 120.72527 5449 ft 208 kts 350°
2026-05-06 00:09 16.37729 120.71872 5490 ft 204 kts 322°
2026-05-06 00:09 16.38726 120.70808 5501 ft 207 kts 308°
2026-05-06 00:09 16.39485 120.69547 5490 ft 206 kts 297°
2026-05-06 00:09 16.39821 120.68626 5459 ft 206 kts 284°
2026-05-06 00:10 16.40082 120.66719 5546 ft 195 kts 279°
2026-05-06 00:10 16.40247 120.65784 5559 ft 193 kts 281°
2026-05-06 00:10 16.40597 120.64012 5523 ft 184 kts 282°
2026-05-06 00:10 16.40877 120.62737 5549 ft 178 kts 284°
2026-05-06 00:11 16.41194 120.61549 5455 ft 157 kts 287°
2026-05-06 00:11 16.41500 120.60512 5350 ft 145 kts 287°
2026-05-06 00:11 16.41667 120.59831 5235 ft 142 kts 275°
2026-05-06 00:11 16.41382 120.58915 5114 ft 134 kts 220°
2026-05-06 00:12 16.40305 120.58851 5087 ft 120 kts 160°
2026-05-06 00:12 16.39781 120.59028 5030 ft 120 kts 160°
2026-05-06 00:12 16.38973 120.59240 4978 ft 120 kts 164°
2026-05-06 00:12 16.38163 120.59430 4849 ft 120 kts 167°
2026-05-06 00:13 16.37497 120.59874 4585 ft 114 kts 117°
2026-05-06 00:13 16.37453 120.60672 4264 ft 114 kts 81°
2026-05-06 00:13 16.37500 120.61439 4109 ft 95 kts 89°
2026-05-06 00:13 16.37511 120.61963 4134 ft 54 kts 89°
2026-05-06 00:14 16.37523 120.62260 4161 ft 23 kts 87°
2026-05-06 00:14 16.37517 120.62327 4162 ft 7 kts 205°
2026-05-06 00:14 16.37518 120.62233 4153 ft 17 kts 272°
2026-05-06 00:14 16.37514 120.62096 4148 ft 21 kts 269°
2026-05-06 00:15 16.37511 120.61928 4130 ft 26 kts 268°
2026-05-06 00:15 16.37505 120.61743 4117 ft 26 kts 268°
2026-05-06 00:15 16.37501 120.61570 4107 ft 23 kts 268°
2026-05-06 00:15 16.37497 120.61451 4100 ft 11 kts 268°
2026-05-06 00:16 16.37523 120.61392 4097 ft 7 kts 18°
2026-05-06 00:16 16.37547 120.61389 4096 ft 0 kts 267°
2026-05-06 00:16 16.37547 120.61388 4096 ft 0 kts 264°